Reflectivity
-20 -20 -20 -20 -20 -20 -20 -20 -20 -20 -20 -20 -20 -20 -20 -20 -20 -20 -20 -20 -20 -20 -20 -20 -20 -20 -20 -20 -20 -20 -20 -20 -20 -20 -20 -20 -20 -20 -1 -20 34 -20 -20 20
-20 -20 -20 -20 -20 -20 -20 -20 -20 -20 -20 -20 -20 -20 -20 -20 -20 -20 -20 -20 -20 -20 -20 -20 -20 -20 -20 -20 -20 -20 -20 -20 -20 -20 -20 -20 -20 -20 -2 11 -20 -20 -20 -20
-20 -20 -20 -20 -20 -20 -20 -20 -20 -20 -20 -20 -20 -20 -20 -20 -20 -20 -20 -20 -20 -20 -20 -20 -20 -20 -20 -20 -20 -20 -20 -20 -20 -20 -20 -20 -20 -20 -20 -20 -20 -20 -20 -2
-20 -20 -20 -20 -20 -20 -20 -20 -20 -20 -20 -20 -20 -20 -20 -20 -20 -20 -20 -20 -20 -20 -20 -20 -20 -20 -20 -20 -20 -20 -20 -20 -20 -20 -20 -20 -20 -20 -20 -20 -20 -20 -20 -20
-20 -20 -20 -20 -20 -20 -20 -20 -20 -20 -20 -20 -20 -20 -20 -20 -20 -20 -20 -20 -20 -20 -20 -20 -20 -20 -20 -20 -20 -20 -20 -20 -20 -20 -20 -20 -20 -20 -20 -20 -20 -20 -20 -20
-20 -20 -20 -20 -20 -20 -20 -20 -20 -20 -20 -20 -20 -20 -20 -20 -20 -20 -20 -20 -20 -20 -20 -20 -20 -20 -20 -20 -20 -20 -20 -20 -20 -20 -20 -20 -20 -20 -20 -20 -20 -20 -20 -20
-20 -20 -20 -20 -20 -20 -20 -20 -20 -20 -20 -20 -20 -20 -20 -20 -20 -20 -20 -20 -20 -20 -20 -20 -20 -20 -20 -20 -20 -20 -20 -20 -20 -20 -20 -20 -20 -20 -20 -20 -20 -20 -20 -20
-20 -20 -20 -20 -20 -20 -20 -20 -20 -20 -20 -20 -20 -20 -20 -20 -20 -20 -20 -20 -20 -20 -20 -20 -20 -20 -20 -20 -20 -20 -20 -20 -20 -20 -20 -20 -20 -20 -20 -20 -20 -20 -20 -20
-20 -20 -20 -20 -20 -20 -20 -20 -20 -20 -20 -20 -20 -20 -20 -20 -20 -20 -20 -20 -20 -20 -20 -20 -20 -20 -20 -20 -20 -20 -20 -20 -20 -20 -20 -20 -20 -20 -20 -20 -20 -18 -20 -20
-20 -20 -20 -20 -20 -20 -20 -20 -20 -20 -20 -20 -20 -20 -20 -20 -20 -20 -20 -20 -20 -20 -20 -20 -20 -20 -20 -20 -20 -20 -20 -20 -20 -20 -20 -20 -20 -20 -6 7 -20 10 7 -9
-20 -20 -20 -20 -20 -20 -20 -20 -20 -20 -20 -20 -20 -20 -20 -20 -20 -20 -20 -20 -20 -20 -20 -20 -20 -20 -20 -20 -20 -20 -20 -20 -20 -20 -20 -20 -20 -20 -16 -18 -4 3 17 4
-20 -20 -20 -20 -20 -20 -20 -20 -20 -20 -20 -20 -20 -20 -20 -20 -20 -20 -20 -20 -20 -20 -20 -20 -20 -20 -20 -20 -20 -20 -20 -20 -20 -20 -20 -20 -20 -19 -0 41 -4 -20 16 2
-20 -20 -20 -20 -20 -20 -20 -20 -20 -20 -20 -20 -20 -20 -20 -20 -20 -20 -20 -20 -20 -20 -20 -20 -20 -20 -20 -20 -20 -20 -20 -20 -20 -20 -20 -20 -20 9 3 -20 21 22 22 36
-20 -20 -20 -20 -20 -20 -20 -20 -20 -20 -20 -20 -20 -20 -20 -20 -20 -20 -20 -20 -20 -20 -20 -20 -20 -20 -20 -20 -20 -20 -20 -20 -20 -20 -20 -20 2 -20 -20 -8 -20 6 35 27
-20 -20 -20 -20 -20 -20 -20 -20 -20 -20 -20 -20 -20 -20 -20 -20 -20 -20 -20 -20 -20 -20 -20 -20 -20 -20 -20 -20 -20 -20 -20 -20 -20 -20 -20 -20 -20 -20 -20 19 15 19 20 33
-20 -20 -20 -20 -20 -20 -20 -20 -20 -20 -20 -20 -20 -20 -20 -20 -20 -20 -20 -20 -20 -20 -20 -20 -20 -20 -20 -20 -20 -20 -20 -20 -20 -20 -20 -20 -20 -20 -20 -20 -20 29 22 27
-20 -20 -20 -20 -20 -20 -20 -20 -20 -20 -20 -20 -20 -20 -20 -20 -20 -20 -20 -20 -20 -20 -20 -20 -20 -20 -20 -20 -20 -20 -20 -20 -20 -20 -20 -20 -20 -20 -20 -20 -20 18 16 28
-20 -20 -20 -20 -20 -20 -20 -20 -20 -20 -20 -20 -20 -20 -20 -20 -20 -20 -20 -20 -20 -20 -20 -20 -20 -20 -20 -20 -20 -20 -20 -20 -20 -20 -20 -20 -20 -20 -20 -20 -20 23 13 -8
-20 -20 -20 -20 -20 -20 -20 -20 -20 -20 -20 -20 -20 -20 -20 -20 -20 -20 -20 -20 -20 -20 -20 -20 -20 -20 -20 -20 -20 -20 -20 -20 -20 -20 -20 -20 -20 -20 -20 -20 -20 -20 -18 -10
-20 -20 -20 -20 -20 -20 -20 -20 -20 -20 -20 -20 -20 -20 -20 -20 -20 -20 -20 -20 -20 -20 -20 -20 -20 -20 -20 -20 -20 -20 -20 -20 -20 -20 -20 -20 -20 -20 -20 -20 -10 -1 1 20
-20 -20 -20 -20 -5 -7 -20 -20 -20 -20 -20 -20 -20 -20 -20 -20 -20 -20 -20 -20 -20 -20 -20 -20 -20 -20 -20 -20 -20 -20 -20 -20 -20 -20 -18 13 -11 -20 -20 -2 2 12 7 -10
-20 -20 -20 -20 12 -2 -20 -20 -20 -20 -20 -20 -20 -20 -20 -20 -20 -20 -20 -20 -20 -20 -20 -20 -20 -20 -12 -17 -20 -20 -20 -20 -20 -20 -15 -20 -20 -20 -6 -0 19 19 1 12
-20 -20 -20 33 26 -19 -20 -20 -20 -20 -20 -20 -20 -20 -20 -20 -20 -16 -20 -20 -20 -20 -20 -20 -20 -20 -20 -20 -20 -20 -20 -3 20 20 -16 -13 -20 -18 -3 1 8 11 8 15
-20 -20 -20 7 20 -20 -20 -20 -20 -20 -20 -20 -20 -20 -20 -20 -20 -20 -20 -20 -20 -20 -20 -20 -20 -20 -20 -20 -20 -14 27 13 -20 -19 -1 -3 2 6 6 1 3 9 3 -14
-15 -20 -18 2 25 20 -20 1 2 -20 -20 -20 -20 -20 -20 -20 -20 -3 -13 -2 -19 -20 -20 -20 -20 -20 -20 -10 10 23 -18 -20 -12 12 3 3 -7 -4 -20 -20 -20 -20 -20 -3
17 -2 -12 4 8 38 22 16 5 20 23 -20 -20 -20 -20 -20 -20 -20 11 4 -19 -20 -20 -20 -20 -20 -9 12 -20 7 -12 -20 -20 -15 -20 -20 -20 -20 -20 -20 -20 -9 -4 -15
Wind_Speed
4 9 15 17 15 12 14 15 16 9 10 11 14 12 7 14 17 18 18 19 19 20 20 19 19 17 16 15 15 16 14 14 10 8 8 8 8 7 7 7 9 8 7 6
6 15 14 14 13 9 14 15 14 7 12 12 11 13 10 16 21 20 20 20 20 20 19 18 18 18 18 18 18 16 16 14 12 10 8 6 5 6 6 6 6 7 7 8
13 8 10 12 12 12 12 17 13 14 12 4 6 15 15 13 18 18 20 20 20 21 20 19 20 20 19 19 18 16 16 15 13 13 7 5 3 2 4 6 6 7 8 7
10 8 17 13 18 15 17 14 16 16 12 13 12 11 11 15 18 21 22 21 22 21 20 19 20 20 20 19 18 17 16 15 14 14 11 11 9 9 7 6 5 5 7 7
9 11 14 21 19 15 11 12 18 17 17 9 9 8 12 8 17 23 25 25 25 23 22 22 21 20 20 20 18 17 16 15 15 14 13 11 12 8 5 4 4 4 4 6
14 3 14 15 17 18 10 12 6 4 9 10 17 15 13 10 15 22 22 25 25 24 24 23 22 20 18 18 18 18 17 16 15 15 16 15 13 11 7 6 6 5 5 5
12 14 7 10 18 15 14 16 8 9 8 9 12 13 17 11 19 22 19 24 27 25 24 23 22 20 19 20 20 17 17 17 15 17 17 17 16 14 12 9 8 8 7 6
16 16 17 14 17 14 20 20 11 17 10 10 4 12 14 17 23 13 15 14 20 24 23 23 21 21 21 21 20 18 18 17 17 17 16 14 15 11 8 10 8 8 8 7
15 18 4 11 9 18 15 14 16 8 2 8 7 6 11 13 15 16 21 15 20 23 25 27 25 23 22 19 21 21 19 17 17 17 13 15 14 14 11 12 8 8 6 7
10 8 14 17 13 9 16 15 11 8 17 15 8 5 7 6 13 16 15 18 20 22 23 25 24 23 20 21 21 19 19 21 18 16 15 14 15 13 8 5 6 8 8 7
15 12 6 8 19 21 8 9 4 7 9 15 15 13 8 13 13 12 15 17 19 19 22 23 21 21 21 20 18 19 19 18 17 17 16 15 14 11 8 9 6 8 5 6
14 13 14 14 7 8 24 20 18 11 12 5 10 14 5 14 13 10 14 13 10 15 19 20 20 21 20 19 19 21 20 20 20 17 16 14 11 13 15 9 6 7 5 5
10 9 11 14 16 9 9 17 20 18 14 17 15 11 4 6 9 14 17 14 7 11 16 16 18 19 19 19 17 18 19 22 19 16 16 14 14 16 14 13 13 5 4 2
8 6 11 16 19 15 16 12 16 19 16 15 16 17 10 10 12 15 16 14 11 10 14 15 16 18 17 17 17 16 17 17 16 16 15 15 16 15 15 14 14 13 11 12
8 10 16 20 21 23 23 22 21 19 22 20 17 18 17 15 17 17 15 9 10 11 15 17 18 16 16 16 15 15 15 14 15 15 15 16 17 16 16 17 16 14 14 12
7 5 8 15 25 23 27 26 23 23 24 20 22 16 12 14 10 12 15 12 13 15 17 18 16 16 17 17 16 14 14 15 14 15 16 16 18 18 19 17 16 15 14 15
7 6 5 8 17 20 22 25 24 20 21 21 20 14 11 12 15 16 14 14 16 16 16 16 18 15 14 15 13 14 13 14 15 15 15 18 18 18 19 17 16 16 16 13
8 5 3 3 4 10 15 23 25 24 20 18 15 11 11 12 8 9 9 14 16 13 12 12 11 12 12 12 12 12 13 14 14 14 15 16 17 17 16 17 19 17 13 15
7 7 4 3 7 7 5 5 13 22 22 14 16 15 11 5 4 8 5 9 12 9 7 9 10 11 11 12 12 13 13 12 12 14 15 16 17 18 18 18 17 14 12 13
11 8 6 3 5 7 2 2 4 2 14 13 11 10 9 8 8 5 2 5 8 9 9 11 12 11 11 11 13 13 13 13 14 14 15 17 16 16 17 17 16 11 11 12
6 4 2 6 5 6 7 9 2 10 4 3 8 9 11 7 2 4 7 8 8 10 14 11 11 12 10 11 12 12 13 15 15 14 14 14 15 15 14 12 11 11 10 12
7 6 2 4 4 12 14 2 6 5 5 8 10 16 20 16 14 14 13 12 12 11 12 12 12 12 10 9 7 7 7 4 7 10 15 13 12 11 11 12 10 10 10 12
6 4 9 10 5 11 9 2 3 5 8 11 13 13 20 23 18 15 14 13 12 11 10 10 12 12 9 8 7 7 6 8 10 12 11 11 11 11 10 11 11 9 11 9
4 2 6 8 4 7 5 10 10 13 13 12 12 13 13 18 18 14 11 12 10 9 10 8 10 11 8 6 4 6 12 10 11 8 8 10 10 10 7 6 6 6 6 7
4 2 10 5 10 9 3 6 6 13 14 15 14 15 15 17 14 15 10 10 8 7 7 7 6 6 8 4 10 5 6 7 12 8 8 8 7 8 7 6 3 0 3 2
6 3 2 8 13 2 5 6 9 13 11 12 16 17 17 15 14 15 13 9 7 7 5 4 7 7 11 7 7 7 7 8 10 8 7 5 5 6 5 5 6 13 8 8
Wind_Direction
175 197 199 193 196 215 191 207 192 171 170 189 221 253 219 196 207 204 203 203 205 210 210 209 211 212 212 214 211 211 207 210 204 201 209 220 224 228 239 244 252 243 244 234
173 216 203 199 203 198 202 211 203 150 162 199 210 243 241 203 216 209 205 209 211 214 213 213 215 211 210 211 213 210 213 210 211 210 212 218 211 229 241 239 230 227 228 214
209 206 194 200 200 197 212 208 189 194 179 160 193 245 239 218 219 217 219 218 216 217 213 212 214 212 209 212 210 210 211 213 214 214 204 180 160 183 206 217 217 215 221 216
213 203 192 197 212 203 208 214 202 184 176 227 199 261 228 221 213 219 221 218 219 217 218 216 211 212 210 211 208 208 209 211 214 206 207 207 214 221 218 206 206 208 207 197
190 189 192 200 207 201 224 181 195 194 197 207 214 244 258 201 219 220 220 221 220 218 214 215 213 212 211 209 206 206 206 210 211 204 209 203 218 224 209 181 183 204 184 200
211 197 196 200 203 198 146 125 94 144 201 221 219 216 249 207 219 227 222 221 222 217 216 217 214 210 211 207 206 203 202 208 205 206 208 207 210 210 200 186 189 192 186 180
202 217 214 195 199 198 197 171 168 192 198 226 228 217 245 245 232 235 231 217 217 212 215 215 210 204 206 204 201 200 200 209 205 207 208 209 207 205 199 189 195 184 190 196
203 216 208 197 208 188 198 199 202 206 205 213 179 220 237 237 250 248 253 237 219 216 212 215 206 202 202 202 200 199 199 205 205 205 208 208 203 206 197 198 194 200 195 198
199 223 202 205 191 179 177 209 215 221 21 225 190 241 274 249 249 245 240 224 215 213 211 210 206 206 205 198 201 200 199 202 207 206 204 204 199 207 202 191 189 193 195 190
181 207 207 198 195 188 206 175 189 213 217 229 203 235 233 221 244 241 239 224 227 217 209 209 208 205 203 202 203 199 197 202 202 203 206 203 203 198 176 204 168 195 189 205
188 216 156 176 207 199 171 183 210 235 233 230 234 232 211 232 244 246 242 231 232 218 210 205 204 201 203 204 202 202 202 200 200 201 199 200 197 175 139 168 199 153 182 183
201 207 219 215 205 240 222 214 208 214 191 225 254 224 185 232 240 243 251 250 249 219 207 204 200 200 202 203 203 204 203 202 202 199 196 192 164 149 166 187 188 151 153 167
165 211 213 230 238 201 225 226 223 229 245 213 229 221 197 230 242 248 254 263 244 212 202 196 195 198 199 201 203 205 206 211 207 197 194 184 169 170 168 168 146 143 151 173
177 177 217 224 231 233 227 226 217 221 225 222 228 237 210 237 244 257 244 248 240 210 200 197 194 200 199 200 201 205 212 211 205 199 193 182 176 172 170 163 147 166 146 209
207 213 215 227 228 215 222 228 218 217 235 231 226 219 221 224 235 236 240 255 218 201 200 199 199 198 195 197 199 203 206 200 197 188 186 184 180 175 169 173 170 174 187 211
195 224 218 243 230 224 221 220 225 222 226 230 237 221 218 230 237 243 246 230 224 210 207 207 206 197 196 195 195 196 198 196 188 183 189 179 179 175 184 182 184 182 200 210
193 197 177 242 231 218 231 223 220 226 223 210 218 222 213 227 228 229 229 228 228 218 211 202 201 193 191 192 183 188 186 180 179 185 181 181 185 187 189 185 185 198 213 220
169 141 217 292 155 213 236 224 218 213 214 216 243 243 224 238 255 259 239 238 233 228 228 206 198 191 181 177 177 171 174 176 178 179 180 189 190 194 190 190 196 203 214 221
221 134 161 226 242 271 234 169 213 214 234 225 234 233 243 243 205 245 233 232 229 205 183 192 186 175 171 168 161 160 163 165 171 178 187 194 195 192 187 197 200 204 210 229
100 102 143 110 257 252 187 56 357 298 226 186 213 226 211 147 203 206 313 194 168 162 150 152 147 146 147 147 153 148 154 164 182 183 189 189 197 198 197 199 203 205 212 232
181 112 144 122 251 274 3 324 235 187 185 193 199 203 142 148 12 77 93 90 96 114 116 118 121 112 110 130 142 153 166 186 189 184 179 186 184 198 201 199 201 196 197 220
160 154 83 106 206 256 0 260 243 26 72 107 133 126 109 107 97 86 81 77 75 83 93 96 86 85 86 103 131 148 176 149 160 171 171 168 179 190 193 191 203 212 209 216
172 192 134 130 312 326 320 353 63 73 72 67 86 94 110 102 90 86 84 75 72 65 73 86 96 98 86 97 108 133 140 151 154 195 158 152 178 182 179 189 203 203 204 217
59 115 102 119 9 322 347 73 80 78 73 68 59 60 72 89 97 84 78 78 71 61 61 64 92 89 89 77 61 143 140 167 165 151 153 169 172 179 183 184 196 201 206 213
4 265 126 79 105 292 56 81 65 85 82 72 64 63 70 81 72 89 73 65 74 79 81 80 87 106 99 118 91 110 142 167 116 137 163 155 145 141 114 91 49 293 93 329
340 351 160 160 160 240 185 136 104 95 80 74 74 61 50 67 81 78 71 54 48 56 50 92 112 102 75 99 121 149 157 112 121 143 151 149 143 129 136 136 111 49 28 23